Location: Commerly
(45.4712°N, 1.9824°E)
Time: 13:59:23
(UTC+00:00)

Daily predictions for brighter satellites

Satellite Brightness Start Highest point End
(mag) Time Altitude Azimuth Time Altitude Azimuth Time Altitude Azimuth
S3M 4.2 19:36:59 10° SSE 19:43:11 56° E 19:49:20 10° NNE
Helios 1A Rocket 4.0 19:40:41 10° S 19:44:40 47° W 19:48:42 10° NNW
Sich 1 3.4 19:40:31 10° N 19:44:43 48° ENE 19:48:57 10° SSE
OBJECT-B 1.0 19:43:08 10° S 19:46:22 75° WSW 19:49:38 10° NNW
IRS-1A Rocket 4.4 19:45:21 10° SSE 19:51:06 77° ENE 19:57:00 10° NNW
BREEZE M DEB (TANK) 3.5 19:48:54 10° W 19:56:07 49° N 19:58:47 10° ENE
Cosmos 1486 Rocket 4.2 19:52:56 10° SSW 19:58:16 81° WNW 20:03:39 10° NNE
Cosmos 2082 Rocket 4.0 19:55:05 10° N 19:58:51 18° NE 20:02:36 10° E
Cosmos 1553 Rocket 4.2 19:53:53 10° SSW 20:00:01 79° W 20:06:18 10° N
OE (NEXTSAT) 4.3 19:56:58 10° W 20:00:27 86° N 20:03:56 10° E
Cosmos 1151 Rocket 3.8 19:57:41 10° SSE 20:01:36 34° E 20:05:34 10° NNE
X-37B 0.8 19:58:42 10° W 20:01:51 61° SSW 20:04:43 12° ESE
CREW DRAGON DEMO-1 DEB 4.5 19:59:53 10° NW 20:02:07 24° N 20:04:22 10° ENE
SPOT 3 Rocket 3.9 19:57:21 10° SE 20:02:17 48° ENE 20:07:14 10° N
Cosmos 1437 Rocket 3.2 19:58:45 10° SSW 20:02:36 67° WNW 20:06:34 10° N
Cosmos 2084 3.8 20:01:49 10° S 20:05:40 39° ESE 20:09:37 10° NE
COSMOS 2406 4.2 20:00:41 10° N 20:05:46 32° NE 20:10:33 11° ESE
Resurs 01 Rocket 1.9 20:02:33 10° SSE 20:06:53 55° ENE 20:11:14 10° N
USA 290 2.4 20:05:02 10° NNW 20:08:17 73° WSW 20:11:29 10° SSE
USA 186 4.1 20:08:02 10° SW 20:09:42 16° W 20:11:19 10° NW
Meteor 1-20 Rocket 4.2 20:05:11 10° N 20:10:50 83° E 20:16:20 10° SSE
Cosmos 1933 3.3 20:09:10 10° S 20:13:12 82° E 20:17:15 10° N
Cosmos 773 Rocket 4.3 20:13:09 10° NNW 20:18:23 54° ENE 20:22:41 15° SE
MetOp-B 4.4 20:15:10 12° SE 20:20:01 55° ENE 20:25:16 10° N
Cosmos 2278 Rocket 2.9 20:19:05 10° SSE 20:24:03 33° ESE 20:29:03 10° NE
BREEZE-M DEB (TANK) 2.8 20:23:31 10° WNW 20:25:44 30° N 20:27:38 10° ENE
Spot 2 Rocket 4.3 20:22:06 15° SE 20:25:46 36° ENE 20:30:22 10° N
Cosmos 1602 3.7 20:22:18 10° N 20:26:12 77° E 20:29:33 13° SSE
Cosmos 1782 2.8 20:22:57 10° S 20:26:54 63° E 20:30:51 10° NNE
Landsat 7 3.8 20:23:02 13° SSE 20:27:18 69° ENE 20:32:03 10° N
USA 305 4.0 20:23:30 10° NW 20:27:32 39° NNE 20:31:23 11° E
GPS 2-04 Rocket1 4.3 20:25:00 10° SSW 20:27:47 18° S 20:28:42 17° SSE
IGS 5A 3.4 20:24:31 13° SSE 20:28:15 79° ENE 20:32:25 10° N
Cosmos 1844 Rocket 3.9 20:23:01 10° SW 20:28:21 45° WNW 20:33:43 10° NNE
Cosmos 1242 Rocket 2.8 20:25:56 10° SSW 20:29:29 68° WNW 20:33:01 10° N
Cosmos 1515 Rocket 4.4 20:29:37 17° SE 20:32:19 33° E 20:36:15 10° NNE
ERS-1 Rocket 4.1 20:30:20 16° ESE 20:33:28 29° ENE 20:37:46 10° N
BREEZE-M DEB (TANK) 3.8 20:24:37 10° WNW 20:33:32 53° SW 20:35:39 20° SSE
CZ-4C R/B 3.1 20:30:05 10° NW 20:37:16 71° NE 20:43:47 18° SE
Cosmos 1633 Rocket 3.0 20:35:36 10° N 20:40:01 89° WNW 20:43:38 15° S
Akebono 3.9 20:41:23 10° NNW 20:43:38 59° ENE 20:43:57 49° ESE
ATLAS 5 CENTAUR R/B 2.9 20:41:00 10° NW 20:46:35 54° WSW 20:51:47 16° SSE
USA 306 3.6 20:42:48 10° NW 20:46:56 47° NNE 20:49:58 17° E
Cosmos 1328 Rocket 3.5 20:44:55 10° S 20:49:21 88° E 20:53:47 10° N
Cosmos 1812 2.9 20:47:18 24° SSE 20:49:22 49° E 20:53:07 10° NNE
Cosmos 1777 Rocket 3.9 20:45:49 10° S 20:50:58 70° ESE 20:56:10 10° NNE
SWARM A 4.4 20:48:13 10° N 20:51:30 54° E 20:52:43 32° SSE
Cosmos 1470 Rocket 3.6 20:47:50 10° N 20:52:19 71° E 20:55:01 24° SSE
ARIANE 5 R/B 2.7 20:52:22 25° SE 20:54:40 57° ENE 20:58:56 10° N
CRYOSAT 2 4.4 20:53:55 15° S 20:57:56 81° W 21:02:51 10° N
CARTOSAT-1 3.7 20:56:43 27° SE 20:58:51 58° ENE 21:03:06 10° N
Cosmos 1666 3.1 20:55:43 10° N 20:59:19 45° ENE 21:00:28 33° SE
Cosmos 1833 Rocket 2.7 20:58:07 10° NNW 21:03:49 82° ENE 21:07:04 27° SSE
Meteor 1-5 Rocket 4.0 20:59:55 10° N 21:05:20 76° E 21:08:22 26° SSE
BREEZE-M R/B 3.2 21:03:14 10° W 21:05:35 37° N 21:07:49 12° ENE
Cosmos 1933 Rocket 3.5 21:02:14 10° N 21:06:34 65° E 21:08:26 32° SSE
Cosmos 1437 3.4 21:05:01 18° SW 21:06:52 45° WNW 21:09:38 10° N
Meteor 1-10 Rocket 4.4 21:05:30 24° SSE 21:08:45 54° E 21:14:15 10° NNE
Cosmos 1536 4.1 21:06:22 10° NNE 21:09:46 25° ENE 21:10:33 24° E
USA 307 3.2 21:09:25 10° NW 21:13:39 63° NNE 21:15:37 30° ESE
Cosmos 2184 Rocket 4.0 21:08:01 10° N 21:14:13 65° E 21:17:33 28° SSE
CZ-2C R/B 4.3 21:11:17 10° N 21:15:42 57° WNW 21:20:09 10° SSW
H-2A R/B 4.1 21:13:59 10° NNE 21:17:52 35° E 21:18:18 34° ESE
Cosmos 2074 Rocket 4.0 21:12:25 10° N 21:18:45 73° E 21:22:13 28° SSE
NOSS 3-4 (A) 4.0 21:12:32 10° NW 21:19:29 69° NE 21:24:06 26° SE
NOSS 3-4 (C) 4.0 21:12:39 10° NW 21:19:35 69° NE 21:24:13 26° SE
JB-3 4.1 21:16:31 10° NNE 21:20:26 85° ESE 21:21:59 35° S
USA 245 3.4 21:20:53 33° W 21:20:53 33° W 21:22:50 10° NNW
SJ 16-02 1.2 21:19:29 26° S 21:21:56 76° ESE 21:26:22 10° NNE
Nadezhda 1 Rocket 4.3 21:19:52 29° SSE 21:22:48 50° E 21:28:47 10° NNE
SPOT 1/Viking Rocket 4.2 21:23:34 20° SSW 21:26:59 50° W 21:32:04 10° NNW
USA 308 2.9 21:22:59 10° NW 21:27:17 76° NNE 21:28:43 41° ESE
Cosmos 1500 4.4 21:25:44 10° NNW 21:29:11 35° W 21:30:59 22° SW
ATLAS 2AS CENTAUR R/B 3.3 21:25:41 10° NNW 21:32:58 53° NE 21:37:04 24° ESE
Iridium 4 Rocket 3.8 21:30:58 26° S 21:34:26 85° W 21:40:23 10° N
Terra 1.8 21:33:01 41° SE 21:34:35 69° ENE 21:39:20 10° N
CREW DRAGON DEMO-1 DEB 3.6 21:34:03 10° WNW 21:35:56 41° WNW 21:35:56 41° WNW
Cosmos 1544 4.1 21:33:51 10° N 21:37:03 32° ENE 21:37:03 32° ENE
X-37B 2.9 21:35:48 10° WSW 21:36:59 16° WSW 21:36:59 16° WSW
SPOT 5 3.1 21:38:33 36° S 21:40:41 76° WSW 21:46:00 10° NNW
Cosmos 1610 Rocket 4.5 21:35:28 10° N 21:41:36 69° E 21:44:05 37° SSE
Resurs 01 Rocket 4.1 21:40:56 10° SW 21:43:42 16° W 21:46:29 10° NW
Cosmos 2082 Rocket 2.1 21:38:07 10° NNW 21:43:47 87° ENE 21:45:50 41° SSE
Cosmos 158 Rocket 3.8 21:40:31 10° NNW 21:45:25 84° WSW 21:46:51 47° SSE
Cosmos 2228 Rocket 3.0 21:45:34 49° S 21:46:45 86° E 21:51:15 10° N
Cosmos 44 4.2 21:44:41 10° NNW 21:49:56 46° NE 21:51:59 31° E
COSMOS 2406 3.9 21:44:51 10° NW 21:50:12 44° WSW 21:52:38 29° SSW
Cosmos 1271 Rocket 3.5 21:54:20 33° SW 21:55:47 50° WNW 21:59:43 10° N
Meteor 1-27 Rocket 3.7 21:58:45 36° S 22:01:17 89° W 22:07:14 10° N
Cosmos 2341 Rocket 4.3 21:55:50 10° N 22:02:07 55° ENE 22:04:08 40° SE
USA 305 3.2 22:03:27 10° WNW 22:07:27 54° SW 22:07:27 54° SW
Cosmos 2278 Rocket 3.4 22:02:40 10° SW 22:08:01 42° NW 22:13:23 10° NNE
Cosmos 1295 Rocket 4.5 22:02:46 10° N 22:09:10 85° W 22:11:29 43° S
Cosmos 1937 Rocket 3.7 22:09:32 48° ESE 22:09:40 48° ESE 22:14:38 10° NNE
Milstar 3 4.3 22:01:12 10° WSW 22:10:47 28° S 22:10:47 28° S
SL-24 R/B - RUBIN 2 4.1 22:06:31 10° NNW 22:12:00 65° NE 22:13:07 50° ESE
ERS-1 Rocket 4.0 22:10:19 29° SW 22:12:07 38° W 22:16:48 10° NNW
Cosmos 1680 Rocket 3.4 22:08:24 10° NNW 22:13:45 88° WSW 22:14:52 58° SSE
Cosmos 1943 Rocket 2.4 22:13:55 46° ESE 22:14:12 47° ESE 22:19:34 10° NE
Cosmos 1869 Rocket 3.9 22:11:15 10° NNW 22:15:29 53° W 22:16:04 49° SW
Cosmos 2369 Rocket 3.4 22:17:10 26° E 22:17:10 26° E 22:21:10 10° NE
Centaur D AC-29 4.4 21:21:27 10° WSW 22:17:37 31° SSW 22:20:13 30° S
Gbstr 26 Del rocket 4.4 22:12:10 10° WNW 22:19:37 64° NNE 22:23:48 22° E
Cosmos 1238 Rocket 3.8 22:18:01 10° N 22:24:10 64° ENE 22:25:13 53° SE
Cosmos 858 Rocket 4.4 22:24:21 61° SE 22:24:41 63° ESE 22:29:51 10° NNE
CZ-4C R/B 4.0 22:19:05 10° NW 22:25:41 34° WSW 22:28:58 25° SSW
USA 306 3.9 22:22:52 10° WNW 22:26:02 35° WSW 22:26:02 35° WSW
Meteor 2-9 Rocket 4.5 22:21:49 10° N 22:27:31 55° ENE 22:28:36 48° ESE
Okean 1 3.8 22:29:36 52° NE 22:29:36 52° NE 22:32:52 10° NNE
Cosmos 1340 Rocket 3.1 22:27:10 10° NNW 22:31:03 61° W 22:31:03 61° W
Cosmos 1818 3.8 22:27:32 10° NNW 22:33:00 65° NE 22:34:12 51° ESE
Cosmos 1707 Rocket 3.5 22:32:59 71° WSW 22:33:11 73° W 22:37:35 10° N
DNEPR-1 R/B 4.0 22:34:46 62° S 22:35:35 72° ESE 22:40:38 10° NE
SL-8 Rocket 3.9 22:33:41 10° N 22:40:03 80° E 22:41:32 55° SSE
ALOS 2 3.5 22:41:06 37° ENE 22:41:09 37° ENE 22:45:12 10° N
Cosmos 1536 4.4 22:42:43 10° NNW 22:46:07 26° W 22:46:16 26° W
Meteor 2-4 Rocket 4.2 22:47:05 45° ESE 22:47:27 46° E 22:52:48 10° NNE
Cosmos 1898 Rocket 3.9 22:47:28 40° WSW 22:49:09 59° WNW 22:54:27 10° NNE
Cosmos 1743 3.8 22:46:22 10° NNW 22:49:32 40° WNW 22:49:32 40° WNW
SJ 16-02 4.1 22:58:44 10° W 23:01:04 14° NW 23:03:26 10° NNW
Cosmos 1975 3.4 22:57:16 10° N 23:00:28 55° N 23:00:28 55° N
RESURS DK-1 3.7 22:59:37 10° N 23:03:22 31° NE 23:03:31 31° ENE
Cosmos 1733 Rocket 3.7 23:01:04 10° NNW 23:04:54 47° WNW 23:04:54 47° WNW
Cosmos 1461 3.3 23:07:22 70° NE 23:07:22 70° NE 23:11:30 10° NE
Cosmos 2297 4.3 23:04:38 34° WSW 23:06:53 54° WNW 23:12:29 10° NNE
Cosmos 372 Rocket 3.8 23:07:02 85° SE 23:07:05 85° ESE 23:12:12 10° NNE
Cosmos 864 Rocket 4.3 23:01:14 10° N 23:07:25 82° W 23:08:29 62° S
Cosmos 2242 Rocket 4.2 23:09:01 47° ENE 23:09:01 47° ENE 23:12:40 10° NNE
SeaSat 1 4.1 23:05:50 10° NE 23:08:32 21° E 23:08:32 21° E
Cosmos 1959 Rocket 4.4 23:03:56 10° NNW 23:10:10 76° W 23:11:16 60° SSW
Terra 4.0 23:11:54 14° WSW 23:12:49 14° W 23:15:23 10° WNW
Meteor 1-18 Rocket 4.3 23:16:27 58° SW 23:17:20 68° WNW 23:22:56 10° N
USA 215 3.8 23:13:57 14° ESE 23:19:34 56° NNE 23:25:55 10° NW
Cosmos 1908 Rocket 3.8 23:15:42 10° N 23:19:43 71° N 23:19:43 71° N
ATLAS 2AS CENTAUR R/B 3.3 23:17:06 10° NW 23:23:44 40° WSW 23:24:29 39° SW
Cosmos 1867 3.7 23:25:56 59° E 23:25:56 59° E 23:30:55 10° NE
Nimbus 7 Rocket 4.3 23:20:12 10° NNE 23:26:04 66° ESE 23:26:37 63° SE
Cosmos 1125 Rocket 4.2 23:26:49 42° E 23:26:49 42° E 23:31:16 10° NNE
Cosmos 2082 Rocket 4.2 23:24:11 10° WNW 23:27:03 14° W 23:27:41 14° WSW
ATLAS CENTAUR R/B 3.2 23:38:29 20° ENE 23:38:29 20° ENE 23:39:53 10° NE
Cosmos 2344 4.5 23:30:14 10° NW 23:39:21 70° NE 23:51:07 13° SE
Cosmos 1821 Rocket 3.9 23:33:52 10° N 23:40:20 84° E 23:41:25 64° SSE
Cosmos 1934 Rocket 4.5 23:34:54 10° N 23:40:51 48° ENE 23:42:10 42° ESE
Cosmos 1703 Rocket 4.0 23:48:52 57° NW 23:48:52 57° NW 23:52:43 10° N
Okean 3 4.1 23:50:46 54° NE 23:50:46 54° NE 23:54:10 10° NNE
Cosmos 1782 Rocket 3.9 23:47:33 10° NNW 23:51:22 62° NNW 23:51:22 62° NNW
Lacrosse 5 3.7 23:54:51 20° E 23:54:51 20° E 23:57:04 10° ENE
